AirNav   Everest Fuels
 
 385 users online  

MO1 Richland Municipal Airport
Richland, Missouri, USA

GOING TO RICHLAND?


FAA INFORMATION EFFECTIVE 15 AUGUST 2019

Location

FAA Identifier: MO1
Lat/Long: 37-52-29.6000N 092-24-29.0000W
37-52.493333N 092-24.483333W
37.8748889,-92.4080556
(estimated)
Elevation: 1110 ft. / 338.3 m (surveyed)
Variation: 04E (1985)
From city: 1 mile N of RICHLAND, MO
Time zone: UTC -5 (UTC -6 during Standard Time)
Zip code: 65556

Airport Operations

Airport use: Open to the public
Activation date: 10/1970
Control tower: no
ARTCC: KANSAS CITY CENTER
FSS: COLUMBIA FLIGHT SERVICE STATION
NOTAMs facility: COU (NOTAM-D service available)
Attendance: UNATNDD
Wind indicator: lighted
Segmented circle: yes
Lights: DUSK-DAWN. ACTVT LIRL RY 14/32 - CTAF.

Airport Communications

CTAF: 122.9
WX AWOS-3 at OZS (15 nm NW): 120.225 (573-317-0412)
WX AWOS-3PT at AIZ (15 nm NW): 135.325 (573-348-0847)
WX ASOS at TBN (15 nm SE): 118.7
WX AWOS-3PT at LBO (18 nm SW): 118.975 (417-533-3419)

Nearby radio navigation aids

VOR radial/distance  VOR name  Freq  Var
SHYr137/13.5SUNSHINE VOR/DME108.4000E
TBNr302/(15.0)FORNEY VOR110.0000E
MAPr294/34.0MAPLES VORTAC113.4006E
VIHr237/37.1VICHY VOR/DME117.7006E

Airport Services

Bottled oxygen: NONE
Bulk oxygen: NONE

Runway Information

Runway 14/32

Dimensions: 3000 x 60 ft. / 914 x 18 m
Surface: asphalt, in good condition
Weight bearing capacity: 
Single wheel: 6.0
Runway edge lights: low intensity
RUNWAY 14  RUNWAY 32
Latitude: 37-52.681333N37-52.306667N
Longitude: 092-24.686167W092-24.279333W
Elevation: 1110.0 ft.1110.0 ft.
Traffic pattern: leftleft
Displaced threshold: 170 ft.130 ft.
Markings: basic, in good conditionbasic, in good condition
Obstructions: 40 ft. trees, 418 ft. from runway, 150 ft. left and right of centerline, 5:1 slope to clear
RWY 14 +40 FT TREES, 588 FT, 150FT L-R, 14:1 BASED ON DSPLCD THLD.
32 ft. trees, 202 ft. from runway, 125 ft. left and right of centerline
RWY 32 +1-6 FT GND; TREE, 35 FT, 55 FT FM RWY END 70 FT R; TREES 18-35 FT, 180-200 FT FM RWY END, L & R.

Airport Ownership and Management from official FAA records

Ownership: Publicly-owned
Owner: CITY OF RICHLAND
PO BOX 798
RICHLAND, MO 65556
Phone 573-765-4421
Manager: STEVE ALEXANDER
PO BOX 798
RICHLAND, MO 65556
Phone (573) 765-2666
MAYOR

Airport Operational Statistics

Aircraft operations: avg 30/month *
89% transient general aviation
11% military
* for 12-month period ending 31 December 2018

Additional Remarks

A96 ULTRALIGHT ACTIVITY ON AND INVOF ARPT.
GOLFERS CROSSING RY APPROXIMATELY 800 FT NORTHWEST OF RY 32 THR.
WILDLIFE ON & INVOF ARPT.
FOR CD CTC KANSAS CITY ARTCC AT 913-254-8508.

Instrument Procedures

There are no published instrument procedures at MO1.

Some nearby airports with instrument procedures:

KOZS - Camdenton Memorial-Lake Regional Airport (15 nm NW)
KAIZ - Lee C Fine Memorial Airport (15 nm NW)
KTBN - Waynesville-St. Robert Regional Airport-Forney Field (15 nm SE)
KLBO - Floyd W Jones Lebanon Airport (18 nm SW)
K15 - Grand Glaize-Osage Beach Airport (19 nm NW)
 
Loc | Ops | Rwys | IFR | FBO | Links
Com | Nav | Svcs | Stats | Notes

Kansas City Aviation Department
 
Area around MO1 (Richland Municipal Airport)
 
Road maps at: MapQuest Bing Google
 
Aerial photo
WARNING: Photo may not be current or correct
Aerial photo of MO1 (Richland Municipal Airport)
Photo taken 16-Mar-2019
looking northwest.

Do you have a better or more recent aerial photo of Richland Municipal Airport that you would like to share? If so, please send us your photo.

 
Sectional chart

 
Airport distance calculator
Flying to Richland Municipal Airport? Find the distance to fly.

From to MO1

Sunrise and sunset
Times for 21-Aug-2019
 Local
(UTC-5)
 Zulu
(UTC)
Morning civil twilight06:0411:04
Sunrise06:3111:31
Sunset19:5400:54
Evening civil twilight20:2201:22

Current date and time
Zulu (UTC)  21-Aug-2019 06:04:32
Local (UTC-5)  21-Aug-2019 01:04:32
 
METAR
KOZS 
15nm NW 
210555Z AUTO 15003KT 10SM CLR 23/18 A3004 RMK AO2
KAIZ 
15nm NW 
210556Z AUTO 00000KT 10SM CLR 22/21 A3003 RMK AO2 SLP161 T02170211 10261 20217 403440217 50001
KTBN 
17nm SE 
210556Z AUTO 18004KT 10SM CLR 21/20 A3003 RMK AO2 SLP159 T02120197 10229 20212 403530212 58001
KLBO 
18nm SW 
210555Z AUTO 20006KT 10SM CLR 23/18 A3006 RMK AO2
TAF
NOTAMs
Click for the latest NOTAMs
NOTAMs are issued by the DoD/FAA and will open in a separate window not controlled by AirNav.

 

 
 

Would you like to see your business listed on this page?

 If your business provides an interesting product or service to pilots, flight crews, aircraft, or users of the Richland Municipal Airport, you should consider listing it here.  To start the listing process, click on the button below
 
Add a business
 

Other Pages about Richland Municipal Airport

Update a link
 
Copyright © AirNav, LLC. All rights reserved. Privacy Policy  Contact